View from above orbital plane
|
View from above satellite
|
Ground track
|
The orbit data is extracted from the following two-line orbital elements,
1 43649U 18078C 21112.43182180 .00002781 00000-0 58626-3 0 9992
2 43649 54.8382 222.6703 5613537 113.2552 313.8478 4.62483005 41954
Epoch (UTC): | 22 April 2021 10:21:49 |
Eccentricity: | 0.5613537 |
inclination: | 54.8382° |
perigee height: | 297 km |
apogee height: | 17381 km |
right ascension of ascending node: | 222.6703° |
argument of perigee: | 113.2552° |
revolutions per day: | 4.62483005 |
mean anomaly at epoch: | 313.8478° |
orbit number at epoch: | 4195 |
The dashed part of the orbit path shows where the satellite is in the earth's shadow,
|
|